sat.trackr.live / text

‹ back to catalog

STARLINK-3818

NORAD 52340 · 2022-045K

PAYLOAD ACTIVE UNKNOWN

§ Identity

Operator
Country
US
Launch date
2022-04-29
Launch site
AFETR
Launch vehicle
Mass (kg)
RCS (m²)

Purposes: comms

External: N2YO · Heavens-Above · Gunter

§ Orbital elements

Epoch: 2026-09-20T02:18:21.502080Z

Period
93.85 min
Inclination
53.1612°
Eccentricity
0.0000991
Mean motion
15.34389265 rev/d
Perigee alt
462.1 km
Apogee alt
463.4 km
Semi-major
6,840.9 km
B*
3.1154e-5
RAAN
31.2789°
Arg perigee
83.6967°
Mean anomaly
276.4149°
Rev number
24,532

§ Raw data

STARLINK-38181 52340U 22045K   26263.09608220  .00000676  00000+0  31154-4 0  99992 52340  53.1612  31.2789 0000991  83.6967 276.4149 15.34389265245327

JSON: /api/v1/satellites/52340 · /tle

For live sub-satellite position, see the globe view (requires WebGL).

§ Visibility from observer

Set your observer location to see the next 7 days of passes ≥ 10°. The values pass through the URL so the page stays shareable.

No JS? Fill the form by hand. The geolocation button needs JavaScript.